User: anonymous   Login
Location: Unspecified
(0.0000°N, 0.0000°E)
Time: 06:53:11
(UTC+00:00)
Language:

QIANFAN-16 - Orbit

View from above orbital plane
View from above orbital plane
View from above satellite
View from above satellite

Ground track
Ground track

The orbit is defined by the following mean orbital elements,

1 60394U          26145.64040654 +.00000000 +00000-0 +14206-3 0 00008
2 60394  88.9715 282.3798 0016661  99.5294 260.7741 13.51006097    08
Epoch (UTC): 25 May 2026 15:22:11
Eccentricity: 0.0016661
inclination: 88.9715°
perigee height: 1056 km
apogee height: 1081 km
right ascension of ascending node: 282.3798°
argument of perigee: 99.5294°
revolutions per day: 13.51006097
mean anomaly at epoch: 260.7741°

The dashed part of the orbit path shows where the satellite is in the earth's shadow,  

DLR